Time,TemperatureF,DewpointF,PressureIn,WindDirection,WindDirectionDegrees,WindSpeedMPH,WindSpeedGustMPH,Humidity,HourlyPrecipIn,Conditions,Clouds,dailyrainin,SoftwareType,DateUTC
2013-01-17 00:05:00,74.0,69.0,30.10,ESE,118,5.0,8.0,85,0.00,,,0.00,weatherlink.com 1.10,2013-01-17 05:05:00,
2013-01-17 00:20:00,74.4,69.0,30.10,SE,136,3.0,11.0,84,0.00,,,0.00,weatherlink.com 1.10,2013-01-17 05:20:00,
2013-01-17 00:35:00,74.4,69.0,30.09,SE,145,5.0,7.0,84,0.00,,,0.00,weatherlink.com 1.10,2013-01-17 05:35:00,
2013-01-17 00:50:00,74.6,70.0,30.09,SE,134,5.0,7.0,84,0.00,,,0.00,weatherlink.com 1.10,2013-01-17 05:50:00,
2013-01-17 01:05:00,74.2,69.0,30.09,SW,235,4.0,7.0,84,0.00,,,0.00,weatherlink.com 1.10,2013-01-17 06:05:00,
2013-01-17 01:20:00,71.4,67.0,30.10,SSE,164,3.0,9.0,87,0.00,,,0.00,weatherlink.com 1.10,2013-01-17 06:20:00,
2013-01-17 01:35:00,70.0,65.0,30.11,SSE,162,11.0,13.0,84,0.00,,,0.00,weatherlink.com 1.10,2013-01-17 06:35:00,
2013-01-17 01:50:00,69.3,65.0,30.11,SSE,158,3.0,9.0,87,0.00,,,0.00,weatherlink.com 1.10,2013-01-17 06:50:00,
2013-01-17 02:05:00,68.3,66.0,30.11,SSE,166,2.0,6.0,92,0.01,,,0.01,weatherlink.com 1.10,2013-01-17 07:05:00,
2013-01-17 02:20:00,67.6,66.0,30.11,SE,143,3.0,6.0,93,0.03,,,0.03,weatherlink.com 1.10,2013-01-17 07:20:00,
2013-01-17 02:35:00,67.2,66.0,30.09,NNE,26,0.0,4.0,94,0.04,,,0.04,weatherlink.com 1.10,2013-01-17 07:35:00,
2013-01-17 02:50:00,67.4,66.0,30.09,East,84,0.0,1.0,95,0.04,,,0.04,weatherlink.com 1.10,2013-01-17 07:50:00,
2013-01-17 03:05:00,67.5,66.0,30.08,NE,44,2.0,4.0,95,0.03,,,0.04,weatherlink.com 1.10,2013-01-17 08:05:00,
2013-01-17 03:20:00,67.7,66.0,30.09,ESE,121,0.0,3.0,94,0.01,,,0.04,weatherlink.com 1.10,2013-01-17 08:20:00,
2013-01-17 03:35:00,67.9,66.0,30.10,SE,134,0.0,4.0,94,0.00,,,0.04,weatherlink.com 1.10,2013-01-17 08:35:00,
2013-01-17 03:50:00,68.1,66.0,30.10,ESE,121,1.0,2.0,94,0.00,,,0.04,weatherlink.com 1.10,2013-01-17 08:50:00,
2013-01-17 04:05:00,68.3,67.0,30.09,East,97,3.0,5.0,94,0.00,,,0.04,weatherlink.com 1.10,2013-01-17 09:05:00,
2013-01-17 04:20:00,68.5,67.0,30.09,East,93,1.0,3.0,94,0.00,,,0.04,weatherlink.com 1.10,2013-01-17 09:20:00,
2013-01-17 04:35:00,68.6,67.0,30.09,ENE,68,2.0,2.0,95,0.00,,,0.04,weatherlink.com 1.10,2013-01-17 09:35:00,
2013-01-17 04:50:00,68.7,67.0,30.09,ENE,77,1.0,2.0,95,0.00,,,0.04,weatherlink.com 1.10,2013-01-17 09:50:00,
2013-01-17 05:05:00,68.9,68.0,30.09,ESE,112,0.0,0.0,95,0.00,,,0.04,weatherlink.com 1.10,2013-01-17 10:05:00,
2013-01-17 05:20:00,69.0,68.0,30.09,SE,145,4.0,6.0,95,0.00,,,0.04,weatherlink.com 1.10,2013-01-17 10:20:00,
2013-01-17 05:35:00,69.0,68.0,30.09,SE,141,5.0,9.0,95,0.00,,,0.04,weatherlink.com 1.10,2013-01-17 10:35:00,
2013-01-17 05:50:00,69.2,68.0,30.09,SE,125,4.0,7.0,95,0.00,,,0.04,weatherlink.com 1.10,2013-01-17 10:50:00,
2013-01-17 06:05:00,69.4,68.0,30.10,SE,125,2.0,6.0,95,0.00,,,0.04,weatherlink.com 1.10,2013-01-17 11:05:00,
2013-01-17 06:20:00,69.6,69.0,30.10,SE,129,6.0,8.0,96,0.01,,,0.05,weatherlink.com 1.10,2013-01-17 11:20:00,
2013-01-17 06:36:00,69.4,68.0,30.11,ESE,122,3.0,4.0,96,0.06,,,0.10,weatherlink.com 1.10,2013-01-17 11:36:00,
2013-01-17 06:51:00,69.2,68.0,30.11,ESE,110,5.0,6.0,97,0.06,,,0.10,weatherlink.com 1.10,2013-01-17 11:51:00,
2013-01-17 07:06:00,69.1,68.0,30.11,East,101,5.0,7.0,97,0.06,,,0.10,weatherlink.com 1.10,2013-01-17 12:06:00,
2013-01-17 07:21:00,68.9,68.0,30.11,East,83,6.0,6.0,97,0.05,,,0.10,weatherlink.com 1.10,2013-01-17 12:21:00,
2013-01-17 07:36:00,68.7,68.0,30.11,East,90,3.0,4.0,97,0.00,,,0.10,weatherlink.com 1.10,2013-01-17 12:36:00,
2013-01-17 07:51:00,69.2,69.0,30.12,ESE,109,1.0,2.0,98,0.00,,,0.10,weatherlink.com 1.10,2013-01-17 12:51:00,
2013-01-17 08:06:00,69.4,69.0,30.12,East,86,0.0,1.0,97,0.00,,,0.10,weatherlink.com 1.10,2013-01-17 13:06:00,
2013-01-17 08:21:00,69.7,69.0,30.13,East,90,0.0,0.0,98,0.00,,,0.10,weatherlink.com 1.10,2013-01-17 13:21:00,
2013-01-17 08:36:00,70.2,69.0,30.13,East,89,0.0,0.0,97,0.00,,,0.10,weatherlink.com 1.10,2013-01-17 13:36:00,
2013-01-17 08:51:00,71.1,70.0,30.13,ESE,121,0.0,0.0,97,0.00,,,0.10,weatherlink.com 1.10,2013-01-17 13:51:00,
2013-01-17 09:06:00,70.8,70.0,30.14,ESE,114,0.0,2.0,97,0.00,,,0.10,weatherlink.com 1.10,2013-01-17 14:06:00,
2013-01-17 09:21:00,71.7,71.0,30.14,East,96,0.0,0.0,97,0.00,,,0.10,weatherlink.com 1.10,2013-01-17 14:21:00,
2013-01-17 09:36:00,72.2,71.0,30.14,SE,145,0.0,3.0,97,0.00,,,0.10,weatherlink.com 1.10,2013-01-17 14:36:00,
2013-01-17 10:06:00,73.5,72.0,30.14,SSE,148,3.0,7.0,95,0.00,,,0.10,weatherlink.com 1.10,2013-01-17 15:06:00,
2013-01-17 10:36:00,74.6,73.0,30.13,SSE,148,4.0,8.0,93,0.00,,,0.10,weatherlink.com 1.10,2013-01-17 15:36:00,
2013-01-17 10:51:00,75.1,71.0,30.12,WSW,249,2.0,6.0,87,0.00,,,0.10,weatherlink.com 1.10,2013-01-17 15:51:00,
2013-01-17 11:06:00,77.7,70.0,30.12,SE,129,3.0,12.0,78,0.00,,,0.10,weatherlink.com 1.10,2013-01-17 16:06:00,
2013-01-17 11:21:00,78.2,69.0,30.11,SSE,162,3.0,11.0,73,0.00,,,0.10,weatherlink.com 1.10,2013-01-17 16:21:00,
2013-01-17 11:36:00,79.0,70.0,30.10,SE,135,3.0,9.0,74,0.00,,,0.10,weatherlink.com 1.10,2013-01-17 16:36:00,
2013-01-17 11:51:00,78.6,69.0,30.09,SW,228,4.0,9.0,72,0.00,,,0.10,weatherlink.com 1.10,2013-01-17 16:51:00,
2013-01-17 12:07:00,79.1,69.0,30.08,SW,231,3.0,10.0,72,0.00,,,0.10,weatherlink.com 1.10,2013-01-17 17:07:00,
2013-01-17 12:21:00,79.0,69.0,30.07,SE,137,4.0,10.0,71,0.00,,,0.10,weatherlink.com 1.10,2013-01-17 17:21:00,
2013-01-17 12:36:00,78.9,69.0,30.07,SSW,212,2.0,8.0,72,0.00,,,0.10,weatherlink.com 1.10,2013-01-17 17:36:00,
2013-01-17 12:51:00,78.8,69.0,30.05,South,177,4.0,11.0,71,0.00,,,0.10,weatherlink.com 1.10,2013-01-17 17:51:00,
2013-01-17 13:06:00,79.0,71.0,30.04,SSE,150,4.0,10.0,77,0.00,,,0.10,weatherlink.com 1.10,2013-01-17 18:06:00,
2013-01-17 13:21:00,77.7,71.0,30.03,SE,133,7.0,10.0,81,0.00,,,0.10,weatherlink.com 1.10,2013-01-17 18:21:00,
2013-01-17 13:36:00,77.6,71.0,30.03,SE,139,9.0,13.0,81,0.00,,,0.10,weatherlink.com 1.10,2013-01-17 18:36:00,
2013-01-17 13:51:00,77.6,71.0,30.02,SE,134,7.0,11.0,80,0.00,,,0.10,weatherlink.com 1.10,2013-01-17 18:51:00,
2013-01-17 14:06:00,77.1,71.0,30.02,South,187,5.0,13.0,80,0.00,,,0.10,weatherlink.com 1.10,2013-01-17 19:06:00,
2013-01-17 14:21:00,77.0,71.0,30.02,SSE,156,4.0,17.0,81,0.00,,,0.10,weatherlink.com 1.10,2013-01-17 19:21:00,
2013-01-17 14:36:00,76.6,70.0,30.02,SW,236,8.0,18.0,81,0.00,,,0.10,weatherlink.com 1.10,2013-01-17 19:36:00,
2013-01-17 14:52:00,76.7,70.0,30.02,South,188,3.0,15.0,80,0.00,,,0.10,weatherlink.com 1.10,2013-01-17 19:52:00,
2013-01-17 15:07:00,77.0,69.0,30.02,SE,142,8.0,11.0,77,0.00,,,0.10,weatherlink.com 1.10,2013-01-17 20:07:00,
2013-01-17 15:22:00,76.7,68.0,30.02,SSE,153,3.0,13.0,75,0.00,,,0.10,weatherlink.com 1.10,2013-01-17 20:22:00,
2013-01-17 15:37:00,76.5,68.0,30.02,SSE,158,4.0,13.0,74,0.00,,,0.10,weatherlink.com 1.10,2013-01-17 20:37:00,
2013-01-17 15:52:00,76.6,68.0,30.02,SSE,167,4.0,10.0,74,0.00,,,0.10,weatherlink.com 1.10,2013-01-17 20:52:00,
2013-01-17 16:07:00,76.8,68.0,30.02,South,191,6.0,11.0,73,0.00,,,0.10,weatherlink.com 1.10,2013-01-17 21:07:00,
2013-01-17 16:22:00,77.6,68.0,30.02,SE,146,2.0,8.0,72,0.00,,,0.10,weatherlink.com 1.10,2013-01-17 21:22:00,
2013-01-17 16:37:00,76.7,67.0,30.03,SSE,153,3.0,9.0,73,0.00,,,0.10,weatherlink.com 1.10,2013-01-17 21:37:00,
2013-01-17 16:52:00,76.2,68.0,30.03,WSW,248,4.0,8.0,75,0.00,,,0.10,weatherlink.com 1.10,2013-01-17 21:52:00,
2013-01-17 17:07:00,76.2,68.0,30.03,SSE,150,5.0,8.0,75,0.00,,,0.10,weatherlink.com 1.10,2013-01-17 22:07:00,
2013-01-17 17:22:00,76.0,68.0,30.03,South,180,2.0,9.0,76,0.00,,,0.10,weatherlink.com 1.10,2013-01-17 22:22:00,
2013-01-17 17:37:00,75.7,68.0,30.03,SE,132,2.0,5.0,77,0.00,,,0.10,weatherlink.com 1.10,2013-01-17 22:37:00,
2013-01-17 18:07:00,75.1,68.0,30.05,WNW,285,8.0,10.0,78,0.00,,,0.10,weatherlink.com 1.10,2013-01-17 23:07:00,
2013-01-17 18:22:00,72.7,67.0,30.07,WNW,284,6.0,17.0,81,0.00,,,0.10,weatherlink.com 1.10,2013-01-17 23:22:00,
2013-01-17 18:37:00,69.6,66.0,30.08,WNW,290,6.0,17.0,87,0.00,,,0.10,weatherlink.com 1.10,2013-01-17 23:37:00,
2013-01-17 18:52:00,68.3,64.0,30.09,WNW,290,13.0,21.0,85,0.01,,,0.11,weatherlink.com 1.10,2013-01-17 23:52:00,
2013-01-17 19:07:00,66.1,62.0,30.11,WNW,286,9.0,20.0,85,0.01,,,0.11,weatherlink.com 1.10,2013-01-18 00:07:00,
2013-01-17 19:22:00,65.9,62.0,30.11,WNW,290,6.0,10.0,86,0.01,,,0.11,weatherlink.com 1.10,2013-01-18 00:22:00,
2013-01-17 19:37:00,65.5,61.0,30.11,WNW,298,7.0,17.0,85,0.01,,,0.11,weatherlink.com 1.10,2013-01-18 00:37:00,
2013-01-17 19:52:00,64.7,59.0,30.12,NW,314,8.0,19.0,83,0.00,,,0.11,weatherlink.com 1.10,2013-01-18 00:52:00,
2013-01-17 20:07:00,64.0,58.0,30.12,West,281,13.0,23.0,82,0.00,,,0.11,weatherlink.com 1.10,2013-01-18 01:07:00,
2013-01-17 20:22:00,63.3,58.0,30.13,West,278,9.0,11.0,83,0.00,,,0.11,weatherlink.com 1.10,2013-01-18 01:22:00,
2013-01-17 20:37:00,62.9,58.0,30.13,West,281,7.0,14.0,84,0.00,,,0.11,weatherlink.com 1.10,2013-01-18 01:37:00,
2013-01-17 20:52:00,62.7,58.0,30.14,WNW,288,4.0,11.0,85,0.00,,,0.11,weatherlink.com 1.10,2013-01-18 01:52:00,
2013-01-17 21:07:00,62.4,58.0,30.13,WSW,245,5.0,10.0,84,0.00,,,0.11,weatherlink.com 1.10,2013-01-18 02:07:00,
2013-01-17 21:22:00,62.2,57.0,30.13,WNW,284,7.0,12.0,84,0.00,,,0.11,weatherlink.com 1.10,2013-01-18 02:22:00,
2013-01-17 21:37:00,62.0,58.0,30.13,West,281,7.0,12.0,85,0.00,,,0.11,weatherlink.com 1.10,2013-01-18 02:37:00,
2013-01-17 21:52:00,62.0,58.0,30.13,West,278,8.0,11.0,85,0.00,,,0.11,weatherlink.com 1.10,2013-01-18 02:52:00,
2013-01-17 22:07:00,61.8,57.0,30.13,WNW,283,6.0,15.0,85,0.00,,,0.11,weatherlink.com 1.10,2013-01-18 03:07:00,
2013-01-17 22:22:00,61.6,57.0,30.13,West,278,9.0,10.0,85,0.00,,,0.11,weatherlink.com 1.10,2013-01-18 03:22:00,
2013-01-17 22:37:00,61.6,56.0,30.14,WNW,288,4.0,13.0,83,0.00,,,0.11,weatherlink.com 1.10,2013-01-18 03:37:00,
2013-01-17 22:52:00,61.3,56.0,30.14,West,277,3.0,13.0,83,0.00,,,0.11,weatherlink.com 1.10,2013-01-18 03:52:00,
2013-01-17 23:07:00,61.3,56.0,30.14,WNW,295,5.0,12.0,82,0.00,,,0.11,weatherlink.com 1.10,2013-01-18 04:07:00,
2013-01-17 23:22:00,61.2,56.0,30.14,West,277,7.0,11.0,82,0.00,,,0.11,weatherlink.com 1.10,2013-01-18 04:22:00,
2013-01-17 23:37:00,60.9,55.0,30.14,West,278,6.0,13.0,81,0.00,,,0.11,weatherlink.com 1.10,2013-01-18 04:37:00,
2013-01-17 23:52:00,60.9,55.0,30.14,West,279,9.0,15.0,80,0.00,,,0.11,weatherlink.com 1.10,2013-01-18 04:52:00,